GW5805 Weather Reports


time (UTC)temp
F
wind
direction
speed
knots
gust
knots
rain 1hr
in
rain 24hr
in
rain mn
in
humidity
%
barometer
mb
20260508213558 77 149 1.7 1.7 0.00 0.00 0.00 31 1016.1
20260508213054 78 212 1.7 1.7 0.00 0.00 0.00 27 1016.3
20260508212550 78 149 0.0 1.7 0.00 0.00 0.00 29 1016.4
20260508212047 78 141 0.9 1.7 0.00 0.00 0.00 30 1016.4
20260508211542 77 164 0.9 1.7 0.00 0.00 0.00 33 1016.8
20260508211039 77 143 0.9 2.6 0.00 0.00 0.00 33 1016.5
20260508210536 76 164 3.5 5.2 0.00 0.00 0.00 29 1016.7
20260508210033 77 140 0.0 0.9 0.00 0.00 0.00 32 1016.7
20260508205530 77 140 0.9 0.9 0.00 0.00 0.00 27 1016.5
20260508205026 77 133 0.9 0.9 0.00 0.00 0.00 32 1016.7
20260508204523 76 153 2.6 2.6 0.00 0.00 0.00 28 1016.9
20260508204019 77 73 1.7 3.5 0.00 0.00 0.00 31 1016.9
20260508203515 77 141 0.9 1.7 0.00 0.00 0.00 33 1017.0
20260508203011 77 138 0.0 0.9 0.00 0.00 0.00 31 1016.9
20260508202508 76 94 2.6 2.6 0.00 0.00 0.00 30 1017.0
20260508202005 76 146 1.7 1.7 0.00 0.00 0.00 30 1017.0
20260508201501 75 166 1.7 3.5 0.00 0.00 0.00 33 1017.3
20260508200958 75 223 1.7 2.6 0.00 0.00 0.00 29 1017.1
20260508200456 75 114 0.0 0.9 0.00 0.00 0.00 30 1017.0
20260508195950 75 89 0.9 1.7 0.00 0.00 0.00 32 1017.0
20260508195448 76 136 0.9 0.9 0.00 0.00 0.00 35 1017.1
20260508194944 75 106 3.5 3.5 0.00 0.00 0.00 29 1017.0
20260508194441 74 82 1.7 1.7 0.00 0.00 0.00 31 1017.2
20260508193938 74 112 0.9 1.7 0.00 0.00 0.00 34 1017.2
20260508193435 75 255 4.3 5.2 0.00 0.00 0.00 28 1017.3
20260508192931 74 288 3.5 5.2 0.00 0.00 0.00 27 1017.3
20260508192428 74 281 0.9 1.7 0.00 0.00 0.00 30 1017.3
20260508191925 74 121 0.0 0.9 0.00 0.00 0.00 30 1017.1
20260508191423 74 129 0.9 2.6 0.00 0.00 0.00 28 1017.3
20260508190919 75 336 4.3 6.1 0.00 0.00 0.00 27 1017.6
20260508190416 76 129 1.7 5.2 0.00 0.00 0.00 30 1017.5
20260508185912 75 153 0.9 0.9 0.00 0.00 0.00 35 1017.5
20260508185410 75 206 1.7 1.7 0.00 0.00 0.00 33 1017.5
20260508184907 74 158 1.7 2.6 0.00 0.00 0.00 34 1017.5
20260508184404 75 130 0.0 0.0 0.00 0.00 0.00 34 1017.5
20260508183901 75 114 0.0 0.0 0.00 0.00 0.00 36 1017.6
20260508183358 74 132 0.0 0.9 0.00 0.00 0.00 36 1017.6
20260508182853 75 142 1.7 2.6 0.00 0.00 0.00 34 1017.6
20260508182350 75 139 1.7 3.5 0.00 0.00 0.00 33 1017.8
20260508181846 75 137 0.9 0.9 0.00 0.00 0.00 35 1017.6
20260508181343 75 135 0.9 0.9 0.00 0.00 0.00 36 1017.7
20260508180840 75 206 3.5 6.1 0.00 0.00 0.00 32 1017.9
20260508180337 75 141 1.7 1.7 0.00 0.00 0.00 35 1017.8
20260508175833 75 138 1.7 1.7 0.00 0.00 0.00 32 1018.0
20260508175329 75 126 0.9 0.9 0.00 0.00 0.00 34 1017.8
20260508174828 76 158 1.7 1.7 0.00 0.00 0.00 32 1018.0
20260508174325 75 178 0.9 1.7 0.00 0.00 0.00 34 1018.1
20260508173821 73 136 0.9 0.9 0.00 0.00 0.00 32 1017.9
20260508173318 72 136 0.0 0.9 0.00 0.00 0.00 34 1018.1
20260508172814 72 210 1.7 1.7 0.00 0.00 0.00 30 1017.9
20260508172311 72 141 0.9 0.9 0.00 0.00 0.00 33 1018.1
20260508171808 73 131 0.0 0.0 0.00 0.00 0.00 33 1018.0
20260508171304 73 133 0.0 0.9 0.00 0.00 0.00 33 1017.9
20260508170801 73 175 0.9 1.7 0.00 0.00 0.00 32 1017.9
20260508170259 73 88 1.7 2.6 0.00 0.00 0.00 35 1017.9
20260508165755 73 135 0.0 0.0 0.00 0.00 0.00 36 1018.0
20260508165253 73 160 1.7 1.7 0.00 0.00 0.00 36 1018.1
20260508164748 73 134 0.0 0.0 0.00 0.00 0.00 39 1018.0
20260508164245 73 137 0.0 0.0 0.00 0.00 0.00 36 1018.0
20260508163743 73 150 0.9 1.7 0.00 0.00 0.00 34 1018.1
20260508163241 73 160 1.7 1.7 0.00 0.00 0.00 36 1018.0
20260508162736 73 158 0.9 0.9 0.00 0.00 0.00 34 1017.8
20260508162234 73 128 0.9 0.9 0.00 0.00 0.00 33 1017.9
20260508161730 72 132 0.0 0.0 0.00 0.00 0.00 37 1017.9
20260508161228 71 155 0.0 0.9 0.00 0.00 0.00 33 1017.9
20260508160726 71 133 0.0 0.0 0.00 0.00 0.00 32 1017.9
20260508160224 71 135 0.9 0.9 0.00 0.00 0.00 33 1017.9
20260508155720 71 133 0.0 0.9 0.00 0.00 0.00 38 1017.8
20260508155217 70 131 0.0 0.9 0.00 0.00 0.00 39 1018.0
20260508154714 69 136 0.9 0.9 0.00 0.00 0.00 37 1018.0
20260508154211 68 129 0.9 0.9 0.00 0.00 0.00 39 1017.9
20260508153708 68 133 0.9 1.7 0.00 0.00 0.00 41 1017.8
20260508153205 68 137 0.0 0.0 0.00 0.00 0.00 42 1017.9
20260508152701 68 145 0.9 0.9 0.00 0.00 0.00 43 1017.7
20260508152157 67 141 0.9 0.9 0.00 0.00 0.00 41 1017.9
20260508151654 66 137 0.0 0.0 0.00 0.00 0.00 45 1017.9
20260508151151 66 137 0.0 0.0 0.00 0.00 0.00 47 1017.9
20260508150647 65 132 0.0 0.0 0.00 0.00 0.00 43 1018.0
20260508150144 63 135 0.0 0.0 0.00 0.00 0.00 50 1017.9
20260508145640 62 131 0.0 0.0 0.00 0.00 0.00 49 1017.8
20260508145136 60 137 0.0 0.0 0.00 0.00 0.00 52 1017.7
20260508144634 59 131 0.0 0.0 0.00 0.00 0.00 54 1017.8
20260508144132 58 135 0.9 0.9 0.00 0.00 0.00 54 1017.7
20260508143629 57 135 0.0 0.0 0.00 0.00 0.00 57 1017.8
20260508143125 56 120 0.0 0.0 0.00 0.00 0.00 60 1017.6
20260508142622 55 144 1.7 1.7 0.00 0.00 0.00 60 1017.6
20260508142119 55 135 1.7 2.6 0.00 0.00 0.00 61 1017.5
20260508141615 54 160 0.9 1.7 0.00 0.00 0.00 61 1017.3
20260508141113 53 136 0.0 0.0 0.00 0.00 0.00 60 1017.6
20260508140610 53 136 0.0 0.0 0.00 0.00 0.00 60 1017.2
20260508140107 52 135 0.0 0.0 0.00 0.00 0.00 61 1017.3
20260508135602 51 133 0.0 0.0 0.00 0.00 0.00 61 1017.2
20260508135059 51 133 0.0 0.0 0.00 0.00 0.00 64 1017.2
20260508134555 50 133 0.0 0.0 0.00 0.00 0.00 64 1017.0
20260508134052 50 135 0.0 0.0 0.00 0.00 0.00 66 1017.0
20260508133549 50 134 0.0 0.0 0.00 0.00 0.00 66 1017.2
20260508133047 49 138 0.0 0.0 0.00 0.00 0.00 66 1016.9
20260508132544 49 136 0.0 0.0 0.00 0.00 0.00 68 1016.9
20260508132041 48 136 0.0 0.0 0.00 0.00 0.00 68 1016.8
20260508131536 48 133 0.0 0.0 0.00 0.00 0.00 68 1016.8
20260508131033 47 133 0.0 0.0 0.00 0.00 0.00 68 1016.7
20260508130530 46 147 0.9 1.7 0.00 0.00 0.00 69 1016.8
20260508130027 46 129 0.0 0.0 0.00 0.00 0.00 70 1016.5
20260508125522 46 132 0.0 0.0 0.00 0.00 0.00 70 1016.5
20260508125020 45 130 0.0 0.0 0.00 0.00 0.00 71 1016.4
20260508124518 45 136 0.0 0.0 0.00 0.00 0.00 71 1016.3
20260508124015 46 136 0.0 0.0 0.00 0.00 0.00 70 1016.3
20260508123514 45 140 0.0 0.0 0.00 0.00 0.00 70 1016.3
20260508123010 44 134 0.0 0.0 0.00 0.00 0.00 72 1016.4
20260508122507 44 131 0.0 0.0 0.00 0.00 0.00 73 1016.3
20260508122004 43 128 0.0 0.0 0.00 0.00 0.00 74 1016.2
20260508121502 44 132 0.0 0.0 0.00 0.00 0.00 72 1016.1
20260508120959 44 132 0.0 0.0 0.00 0.00 0.00 72 1016.2
20260508120457 44 131 0.0 0.0 0.00 0.00 0.00 72 1016.1
20260508115955 45 130 0.0 0.0 0.00 0.00 0.00 72 1016.2
20260508115452 45 130 0.0 0.0 0.00 0.00 0.00 71 1016.0
20260508114949 45 128 0.0 0.0 0.00 0.00 0.00 70 1016.0
20260508114446 45 127 0.0 0.0 0.00 0.00 0.00 71 1016.0
20260508113942 45 134 0.0 0.0 0.00 0.00 0.00 72 1015.9
20260508113440 45 134 0.0 0.0 0.00 0.00 0.00 72 1015.6
20260508112937 46 134 0.0 0.0 0.00 0.00 0.00 71 1015.8
20260508112433 46 134 0.0 0.0 0.00 0.00 0.00 71 1015.8
20260508111930 46 135 0.0 0.0 0.00 0.00 0.00 70 1016.0
20260508111427 46 135 0.0 0.0 0.00 0.00 0.00 70 1015.9
20260508110924 46 134 0.0 0.0 0.00 0.00 0.00 70 1016.0
20260508110422 46 134 0.0 0.0 0.00 0.00 0.00 69 1015.8
20260508105921 46 131 0.0 0.0 0.00 0.00 0.00 68 1015.6
20260508105418 46 129 0.0 0.0 0.00 0.00 0.00 68 1015.6
20260508104915 47 134 0.0 0.0 0.00 0.00 0.00 68 1015.6
20260508104413 47 130 0.0 0.0 0.00 0.00 0.00 68 1015.5
20260508103909 47 127 0.0 0.0 0.00 0.00 0.00 68 1015.6
20260508103406 47 135 0.0 0.0 0.00 0.00 0.00 68 1015.6
20260508102904 48 132 0.0 0.0 0.00 0.00 0.00 67 1015.8
20260508102402 48 132 0.0 0.0 0.00 0.00 0.00 65 1015.5
20260508101859 48 131 0.0 0.0 0.00 0.00 0.00 65 1015.5
20260508101356 48 136 0.0 0.0 0.00 0.00 0.00 63 1015.5
20260508100853 48 129 0.0 0.0 0.00 0.00 0.00 64 1015.4
20260508100352 48 130 0.0 0.0 0.00 0.00 0.00 64 1015.4
20260508095847 49 132 0.0 0.0 0.00 0.00 0.00 63 1015.5
20260508095345 49 147 0.0 0.0 0.00 0.00 0.00 62 1015.4
20260508094842 49 136 0.0 0.0 0.00 0.00 0.00 62 1015.4
20260508094339 49 132 0.0 0.0 0.00 0.00 0.00 62 1015.5
20260508093836 49 134 0.0 0.0 0.00 0.00 0.00 61 1015.5
20260508093333 49 135 0.9 0.9 0.00 0.00 0.00 62 1015.5
20260508092831 49 132 0.0 0.0 0.00 0.00 0.00 64 1015.6
20260508092329 48 137 0.9 0.9 0.00 0.00 0.00 64 1015.3
20260508091826 48 135 0.0 0.9 0.00 0.00 0.00 65 1015.6
20260508091322 48 137 0.0 0.0 0.00 0.00 0.00 65 1015.4
20260508090820 48 139 0.0 0.0 0.00 0.00 0.00 68 1015.6
20260508090319 48 147 0.9 1.7 0.00 0.00 0.00 70 1015.4
20260508085814 47 131 0.0 0.0 0.00 0.00 0.00 71 1015.5
20260508085311 47 140 0.0 0.0 0.00 0.00 0.00 68 1015.6
20260508084808 47 132 0.0 0.0 0.00 0.00 0.00 68 1015.6
20260508084305 47 130 0.0 0.0 0.00 0.00 0.00 68 1015.4
20260508083802 47 132 0.0 0.0 0.00 0.00 0.00 69 1015.5
20260508083300 47 137 0.0 0.0 0.00 0.00 0.00 69 1015.6
20260508082759 47 136 0.0 0.0 0.00 0.00 0.00 70 1015.6
20260508082257 47 126 0.0 0.0 0.00 0.00 0.00 71 1015.9
20260508081754 47 135 0.0 0.0 0.00 0.00 0.00 70 1015.6
20260508081251 47 136 0.0 0.0 0.00 0.00 0.00 70 1015.9
20260508080748 48 139 0.0 0.0 0.00 0.00 0.00 70 1015.4
20260508080246 48 132 0.0 0.0 0.00 0.00 0.00 69 1015.4
20260508075742 48 136 0.0 0.0 0.00 0.00 0.00 68 1015.6
20260508075239 49 137 0.0 0.0 0.00 0.00 0.00 69 1015.4
20260508074737 49 135 0.0 0.0 0.00 0.00 0.00 68 1015.4
20260508074234 49 132 0.0 0.0 0.00 0.00 0.00 67 1015.4
20260508073731 50 131 0.0 0.0 0.00 0.00 0.00 67 1015.4
20260508073229 50 131 0.0 0.0 0.00 0.00 0.00 66 1015.2
20260508072725 50 128 0.0 0.0 0.00 0.00 0.00 65 1015.4
20260508072222 50 113 0.0 0.0 0.00 0.00 0.00 65 1015.4
20260508071719 51 132 0.0 0.0 0.00 0.00 0.00 64 1015.4
20260508071217 51 128 0.0 0.9 0.00 0.00 0.00 63 1015.3
20260508070714 51 134 0.0 0.0 0.00 0.00 0.00 63 1015.4
20260508070213 51 136 0.0 0.0 0.00 0.00 0.00 62 1015.4
20260508065710 51 135 0.0 0.0 0.00 0.00 0.00 61 1015.3
20260508065208 51 132 0.0 0.0 0.00 0.00 0.00 62 1015.5
20260508064705 51 136 0.0 0.0 0.00 0.00 0.00 61 1015.3
20260508064203 52 138 0.0 0.0 0.00 0.00 0.00 60 1015.4
20260508063700 52 133 0.0 0.0 0.00 0.00 0.00 59 1015.3
20260508063158 53 129 0.0 0.0 0.00 0.00 0.00 59 1015.2
20260508062655 53 130 0.0 0.0 0.00 0.00 0.00 59 1015.2
20260508062152 54 133 0.0 0.0 0.00 0.00 0.00 57 1015.1
20260508061649 54 133 0.0 0.0 0.00 0.00 0.00 56 1014.8
20260508061147 54 132 0.0 0.0 0.00 0.00 0.00 56 1015.0
20260508060643 54 133 0.0 0.0 0.00 0.00 0.00 56 1015.0
20260508060141 54 136 0.0 0.0 0.00 0.00 0.00 55 1015.1
20260508055636 54 130 0.0 0.0 0.00 0.00 0.00 54 1015.2
20260508055133 54 131 0.0 0.0 0.00 0.00 0.00 53 1015.0
20260508054629 55 130 0.0 0.0 0.00 0.00 0.00 52 1015.2
20260508054127 55 129 0.0 0.0 0.00 0.00 0.00 51 1015.1
20260508053624 56 130 0.0 0.0 0.00 0.00 0.00 50 1015.1
20260508053122 57 130 0.0 0.0 0.00 0.00 0.00 49 1015.2
20260508052619 57 130 0.0 0.0 0.00 0.00 0.00 49 1015.2
20260508052116 57 123 0.0 0.0 0.00 0.00 0.00 49 1015.1
20260508051612 57 135 0.0 0.0 0.00 0.00 0.00 48 1015.1
20260508051107 58 130 0.0 0.0 0.00 0.00 0.00 48 1015.1
20260508050604 58 130 0.0 0.0 0.00 0.00 0.00 48 1015.1
20260508045557 58 132 0.0 0.0 0.00 0.00 0.00 48 1014.8
20260508045055 58 134 0.0 0.0 0.00 0.00 0.00 48 1014.8
20260508044552 57 130 0.0 0.0 0.00 0.00 0.00 49 1015.1
20260508044048 58 133 0.0 0.0 0.00 0.00 0.00 48 1014.8
20260508043545 59 130 0.0 0.0 0.00 0.00 0.00 47 1014.7
20260508043043 59 134 0.0 0.0 0.00 0.00 0.00 46 1014.7
20260508042539 60 134 0.0 0.0 0.00 0.00 0.00 46 1014.7
20260508042037 60 130 0.0 0.0 0.00 0.00 0.00 45 1014.7
20260508041533 60 132 0.0 0.0 0.00 0.00 0.00 44 1014.7
20260508041029 60 127 0.0 0.0 0.00 0.00 0.00 45 1014.8
20260508040526 60 137 0.0 0.0 0.00 0.00 0.00 45 1014.8
20260508040024 61 135 0.0 0.0 0.00 0.00 0.00 44 1014.6
20260508035520 61 134 0.0 0.0 0.00 0.00 0.00 44 1014.4
20260508035018 61 129 0.0 0.0 0.00 0.00 0.00 44 1014.6
20260508034515 61 115 0.9 0.9 0.00 0.00 0.00 45 1014.6
20260508034012 60 134 0.0 0.0 0.00 0.00 0.00 46 1014.4
20260508033509 59 131 0.0 0.0 0.00 0.00 0.00 48 1014.5
20260508033007 59 127 0.0 0.0 0.00 0.00 0.00 49 1014.3
20260508032504 59 131 0.0 0.0 0.00 0.00 0.00 49 1014.6
20260508032001 59 131 0.0 0.0 0.00 0.00 0.00 49 1014.3
20260508031459 60 131 0.0 0.0 0.00 0.00 0.00 49 1014.0
20260508030953 60 132 0.0 0.0 0.00 0.00 0.00 49 1014.0
20260508030451 60 132 0.0 0.0 0.00 0.00 0.00 48 1014.3
20260508025948 61 132 0.0 0.0 0.00 0.00 0.00 47 1014.0
20260508025444 62 132 0.0 0.0 0.00 0.00 0.00 46 1014.2
20260508024942 62 132 0.0 0.0 0.00 0.00 0.00 45 1014.0
20260508024438 63 134 0.0 0.0 0.00 0.00 0.00 44 1013.8
20260508023935 64 134 0.0 0.0 0.00 0.00 0.00 43 1013.8
20260508023431 64 136 0.0 0.0 0.00 0.00 0.00 41 1013.8
20260508022929 66 136 0.0 0.0 0.00 0.00 0.00 40 1013.9
20260508022424 66 136 0.0 0.0 0.00 0.00 0.00 40 1014.0
20260508021921 67 137 0.0 0.0 0.00 0.00 0.00 38 1013.9
20260508021418 68 137 0.0 0.0 0.00 0.00 0.00 37 1013.8
20260508020913 69 137 0.0 0.0 0.00 0.00 0.00 36 1013.8
20260508020412 69 138 0.0 0.0 0.00 0.00 0.00 34 1013.7
20260508015908 69 137 0.0 0.0 0.00 0.00 0.00 34 1013.8
20260508015406 70 157 1.7 1.7 0.00 0.00 0.00 34 1013.7
20260508014902 70 138 0.0 0.0 0.00 0.00 0.00 34 1013.7
20260508014400 71 141 0.9 0.9 0.00 0.00 0.00 33 1013.9
20260508013855 71 138 0.0 0.0 0.00 0.00 0.00 32 1013.9
20260508013351 71 138 0.9 0.9 0.00 0.00 0.00 32 1013.9
20260508012849 72 136 1.7 1.7 0.00 0.00 0.00 32 1013.8
20260508012346 73 135 0.0 0.0 0.00 0.00 0.00 31 1013.8
20260508011844 73 154 0.0 0.9 0.00 0.00 0.00 30 1013.6
20260508011341 74 137 0.0 0.9 0.00 0.00 0.00 31 1013.9
20260508010838 74 197 1.7 1.7 0.00 0.00 0.00 31 1014.0
20260508010336 74 177 2.6 3.5 0.00 0.00 0.00 30 1013.9
20260508005833 75 133 0.0 0.9 0.00 0.00 0.00 30 1013.8
20260508005329 75 150 3.5 5.2 0.00 0.00 0.00 30 1013.9
20260508004825 75 165 0.9 1.7 0.00 0.00 0.00 29 1014.2
20260508004322 76 166 1.7 2.6 0.00 0.00 0.00 29 1014.0
20260508003818 76 168 1.7 1.7 0.00 0.00 0.00 29 1014.0
20260508003316 76 144 0.9 0.9 0.00 0.00 0.00 31 1014.0
20260508002813 76 149 0.9 1.7 0.00 0.00 0.00 31 1014.0
20260508002309 76 171 1.7 2.6 0.00 0.00 0.00 30 1014.2
20260508001805 77 153 1.7 2.6 0.00 0.00 0.00 28 1014.2
20260508001301 77 198 1.7 2.6 0.00 0.00 0.00 28 1013.9
20260508000757 77 170 3.5 3.5 0.00 0.00 0.00 29 1013.8
20260508000254 76 138 0.0 0.0 0.00 0.00 0.00 30 1013.8
20260507235751 76 142 1.7 1.7 0.00 0.00 0.00 30 1013.7
20260507235249 77 269 4.3 6.1 0.00 0.00 0.00 29 1014.2
20260507234745 77 140 0.9 1.7 0.00 0.00 0.00 31 1014.2
20260507234242 76 139 0.0 0.9 0.00 0.00 0.00 32 1014.2
20260507233738 77 205 0.9 1.7 0.00 0.00 0.00 31 1014.5
20260507233236 77 155 0.9 0.9 0.00 0.00 0.00 31 1014.4
20260507232734 77 178 1.7 1.7 0.00 0.00 0.00 30 1014.4
20260507232230 77 129 1.7 2.6 0.00 0.00 0.00 33 1014.6
20260507231727 77 137 0.9 2.6 0.00 0.00 0.00 31 1014.7
20260507231224 76 141 0.0 0.9 0.00 0.00 0.00 33 1014.6
20260507230720 75 131 1.7 1.7 0.00 0.00 0.00 33 1014.8
20260507230218 76 258 3.5 5.2 0.00 0.00 0.00 30 1014.8
20260507225717 77 179 4.3 5.2 0.00 0.00 0.00 28 1014.8
20260507225214 77 156 1.7 1.7 0.00 0.00 0.00 31 1015.1
20260507224710 75 142 0.9 0.9 0.00 0.00 0.00 34 1015.2
20260507224207 75 98 3.5 5.2 0.00 0.00 0.00 30 1015.3
20260507223703 76 155 2.6 3.5 0.00 0.00 0.00 30 1015.4
20260507223200 76 147 0.0 0.9 0.00 0.00 0.00 34 1015.4
20260507222657 76 127 0.9 1.7 0.00 0.00 0.00 33 1015.5
20260507222153 75 139 0.9 0.9 0.00 0.00 0.00 32 1015.5
20260507221649 73 142 0.0 0.0 0.00 0.00 0.00 34 1015.5
20260507221146 71 165 0.0 0.9 0.00 0.00 0.00 37 1015.6
20260507220643 71 151 0.9 0.9 0.00 0.00 0.00 34 1015.8
20260507220141 71 140 0.0 0.0 0.00 0.00 0.00 36 1015.8
20260507215637 71 141 0.0 0.9 0.00 0.00 0.00 34 1015.9
20260507215134 71 131 0.9 0.9 0.00 0.00 0.00 31 1016.0
20260507214631 72 137 0.0 0.0 0.00 0.00 0.00 33 1015.9
20260507214128 72 151 0.0 0.0 0.00 0.00 0.00 36 1016.2